Weather History for KPYM - September, 2014

Change the Weather History Date:

Monday, September 8, 2014

  Actual Average Record
Temperature  
Mean Temperature 62 °F -  
Max Temperature 73 °F 74 °F 94 °F (1983)
Min Temperature 51 °F 52 °F 40 °F (1984)
Degree Days  
Heating Degree Days 3    
Growing Degree Days 12 (Base 50)    
Moisture  
Dew Point 52 °F    
Average Humidity 67    
Maximum Humidity 89    
Minimum Humidity 49    
Precipitation  
Precipitation 0.00 in - - ()
Sea Level Pressure  
Sea Level Pressure 30.34 in    
Wind  
Wind Speed 6 mph (NE)    
Max Wind Speed 15 mph    
Max Gust Speed 22 mph    
Visibility 10 miles    
Events      
Averages and records for this station are not official NWS values.
T = Trace of Precipitation, MM = Missing Value Source: NWS Daily Summary

Daily Weather History Graph

Daily Weather History Graph

Search for Another Location

Airport or City:

Trip Planner

Search our weather history database for the weather conditions in past years. The results will help you decide how hot, cold, wet, or windy it might be!

Date:

Astronomy

Sep. 08, 2014 Rise Set
Actual Time 6:15 AM EDT 7:04 PM EDT
Civil Twilight 5:47 AM EDT 7:32 PM EDT
Nautical Twilight 5:13 AM EDT 8:06 PM EDT
Astronomical Twilight 4:39 AM EDT 8:41 PM EDT
Moon 6:42 PM EDT (9/8) 5:36 AM EDT (9/8)
Length of Visible Light 13h 45m
Length of Day
12h 48m
Full, 100% of the Moon is Illuminated
Sep 8
Full
Sep 8
Full
Sep 15
Last Quarter
Sep 24
New
Oct 1
First Quarter

Hourly Weather History & Observations

Time (EDT) Temp. Dew Point Humidity Pressure Visibility Wind Dir Wind Speed Gust Speed Precip Events Conditions
12:52 AM 53.1 °F 48.9 °F 86% 30.23 in 10.0 mi Calm Calm - N/A   Clear
1:52 AM 52.0 °F 48.9 °F 89% 30.23 in 10.0 mi Calm Calm - N/A   Clear
2:52 AM 51.1 °F 48.0 °F 89% 30.24 in 10.0 mi Calm Calm - N/A   Clear
3:52 AM 51.1 °F 46.9 °F 86% 30.26 in 10.0 mi Calm Calm - N/A   Clear
5:52 AM 55.0 °F 52.0 °F 89% 30.28 in 10.0 mi ENE 3.5 mph - N/A   Clear
6:52 AM 60.1 °F 55.9 °F 86% 30.31 in 10.0 mi NE 8.1 mph - N/A   Clear
8:52 AM 69.1 °F 57.0 °F 65% 30.34 in 10.0 mi NE 12.7 mph - N/A   Clear
9:52 AM 70.0 °F 55.0 °F 59% 30.36 in 10.0 mi NNE 11.5 mph 18.4 mph N/A   Clear
10:52 AM 72.0 °F 57.0 °F 59% 30.38 in 10.0 mi NE 15.0 mph - N/A   Clear
11:52 AM 72.0 °F 55.9 °F 57% 30.37 in 10.0 mi NE 13.8 mph 21.9 mph N/A   Scattered Clouds
12:06 PM 71.1 °F 55.9 °F 59% 30.37 in 10.0 mi NE 11.5 mph 21.9 mph N/A   Mostly Cloudy
12:29 PM 70.0 °F 55.9 °F 61% 30.37 in 10.0 mi NE 15.0 mph 21.9 mph N/A   Scattered Clouds
12:52 PM 70.0 °F 54.0 °F 57% 30.38 in 10.0 mi East 13.8 mph 19.6 mph N/A   Partly Cloudy
1:52 PM 73.0 °F 53.1 °F 49% 30.39 in 10.0 mi ENE 9.2 mph 20.7 mph N/A   Clear
2:52 PM 70.0 °F 53.1 °F 55% 30.38 in 10.0 mi NNE 10.4 mph - N/A   Clear
4:52 PM 66.9 °F 52.0 °F 59% 30.37 in 10.0 mi NE 8.1 mph - N/A   Clear
5:52 PM 66.0 °F 54.0 °F 65% 30.37 in 10.0 mi NE 8.1 mph - N/A   Clear
6:52 PM 64.0 °F 52.0 °F 65% 30.36 in 10.0 mi NE 5.8 mph - N/A   Clear
7:52 PM 63.0 °F 50.0 °F 63% 30.36 in 10.0 mi NE 5.8 mph - N/A   Clear
8:52 PM 64.0 °F 48.9 °F 58% 30.38 in 10.0 mi ENE 5.8 mph - N/A   Clear
9:52 PM 62.1 °F 48.0 °F 60% 30.36 in 10.0 mi East 5.8 mph - N/A   Clear
10:52 PM 63.0 °F 48.0 °F 58% 30.37 in 10.0 mi East 3.5 mph - N/A   Clear
11:52 PM 63.0 °F 46.9 °F 56% 30.35 in 10.0 mi East 5.8 mph - N/A   Clear